Eureka, Nunavut

12:42 AM CDT on April 25, 2017 (GMT -0500)
Eureka

Weather History for CWEU - August, 2013

Change the Weather History Date:

Friday, August 23, 2013

  Actual Average Record
Temperature  
Mean Temperature 20 °F -  
Max Temperature 25 °F 27 °F 57 °F (2012)
Min Temperature 15 °F 16 °F 15 °F (2013)
Degree Days  
Heating Degree Days 45    
Moisture  
Dew Point 15 °F    
Average Humidity 79    
Maximum Humidity 93    
Minimum Humidity 64    
Precipitation  
Precipitation 0.02 in 0.01 in - ()
Sea Level Pressure  
Sea Level Pressure 29.67 in    
Wind  
Wind Speed 7 mph ()    
Max Wind Speed 16 mph    
Max Gust Speed 22 mph    
Visibility 13.1 miles    
Events Snow    
Averages and records for this station are not official NWS values.
T = Trace of Precipitation, MM = Missing Value Source: Averaged Metar Reports

Daily Weather History Graph

Daily Weather History Graph

Search for Another Location

Airport or City:

Trip Planner

Search our weather history database for the weather conditions in past years. The results will help you decide how hot, cold, wet, or windy it might be!

Date:

Astronomy

Dec. 31, 1969 Rise Set
Actual Time Sun does not set Sun does not set
Civil Twilight Sun does not set Sun does not set
Nautical Twilight Sun does not set Sun does not set
Astronomical Twilight Sun does not set Sun does not set
Moon 6:41 PM CDT (8/23) 10:29 AM CDT (8/23)
Length of Visible Light 24h 00m
Length of Day
24h 00m
Waning Gibbous, 91% of the Moon is Illuminated
Aug 23
Waning Gibbous
Aug 28
Last Quarter
Sep 5
New
Sep 12
First Quarter
Sep 19
Full

Hourly Weather History & Observations

Time (CDT) Temp. Windchill Dew Point Humidity Pressure Visibility Wind Dir Wind Speed Gust Speed Precip Events Conditions
1:00 AM 25 °F - 22 °F 86% 29.60 in 1 mi WSW 6.9 mph - - Snow Light Snow
1:00 AM 24.8 °F 16.9 °F 23.0 °F 93% 29.60 in 0.8 mi West 6.9 mph - N/A Snow Light Snow
2:00 AM 24.8 °F - 21.2 °F 86% 29.61 in 0.8 mi Calm Calm - N/A Snow Light Snow
2:16 AM - - - N/A% - 5.0 mi South 12.7 mph - N/A   Unknown
2:45 AM - - - N/A% - 15.0 mi SE 8.1 mph - N/A   Mostly Cloudy
3:00 AM 21.2 °F 10.9 °F 15.8 °F 80% 29.62 in 15.0 mi ESE 9.2 mph - N/A   Mostly Cloudy
4:00 AM 19.4 °F 7.2 °F 15.8 °F 86% 29.64 in 15.0 mi SSE 11.5 mph 18.4 mph N/A   Scattered Clouds
5:00 AM 23.0 °F 9.6 °F 15.8 °F 74% 29.65 in 15.0 mi SSE 16.1 mph - N/A   Scattered Clouds
6:00 AM 21.2 °F 7.8 °F 15.8 °F 80% 29.67 in 15.0 mi South 15.0 mph 21.9 mph N/A   Scattered Clouds
7:00 AM 21 °F - 15 °F 70% 29.68 in 15 mi SE 10.4 mph - -   Partly Cloudy
7:00 AM 21.2 °F 10.1 °F 15.8 °F 80% 29.68 in 15.0 mi SE 10.4 mph - N/A   Partly Cloudy
8:00 AM 21.2 °F 8.9 °F 15.8 °F 80% 29.68 in 15.0 mi SE 12.7 mph - N/A   Partly Cloudy
9:00 AM 21.2 °F 8.3 °F 15.8 °F 80% 29.68 in 15.0 mi SE 13.8 mph - N/A   Partly Cloudy
10:00 AM 21.2 °F 8.3 °F 15.8 °F 80% 29.68 in 15.0 mi SE 13.8 mph - N/A   Partly Cloudy
11:00 AM 21.2 °F 10.9 °F 15.8 °F 80% 29.69 in 15.0 mi SE 9.2 mph - N/A   Partly Cloudy
12:00 PM 21.2 °F 10.9 °F 15.8 °F 80% 29.69 in 15.0 mi SSE 9.2 mph - N/A   Partly Cloudy
1:00 PM 24 °F - 17 °F 64% 29.70 in 15 mi South 3.5 mph - -   Scattered Clouds
1:00 PM 23.0 °F 18.4 °F 17.6 °F 80% 29.70 in 15.0 mi South 3.5 mph - N/A   Partly Cloudy
2:00 PM 17.6 °F - 12.2 °F 79% 29.70 in 15.0 mi NNE 2.3 mph - N/A   Partly Cloudy
3:00 PM 17.6 °F - 12.2 °F 79% 29.70 in 15.0 mi NE 2.3 mph - N/A   Partly Cloudy
4:00 PM 17.6 °F 6.4 °F 10.4 °F 73% 29.71 in 15.0 mi North 9.2 mph - N/A   Partly Cloudy
5:00 PM 17.6 °F 10.7 °F 10.4 °F 73% 29.70 in 15.0 mi North 4.6 mph - N/A   Partly Cloudy
6:00 PM 15.8 °F - 8.6 °F 73% 29.70 in 15.0 mi Calm Calm - N/A   Partly Cloudy
7:00 PM 15.8 °F 10.2 °F 10.4 °F 79% 29.70 in 15.0 mi ENE 3.5 mph - N/A   Partly Cloudy
8:00 PM 17.6 °F - 12.2 °F 79% 29.69 in 15.0 mi ENE 2.3 mph - N/A   Partly Cloudy
9:00 PM 15.8 °F - 8.6 °F 73% 29.69 in 15.0 mi East 2.3 mph - N/A   Partly Cloudy
10:00 PM 15.8 °F - 10.4 °F 79% 29.68 in 15.0 mi Calm Calm - N/A   Partly Cloudy